Location: Góry Miechowskie
(50.3599°N, 20.1803°E)
Time: 22:39:16
(UTC+00:00)

Tiros 1 despin weight - Pass Details

Date: 20 September 2024
Orbit: 572 x 614 km, 48.2° (Epoch: 12 October)

Event Time Altitude Azimuth Distance (km) Brightness Sun altitude
Rises 06:16:24 0° 277° (W) 2,886 ? 16.9°
Reaches altitude 10° 06:19:40 10° 253° (WSW) 1,977 ? 17.4°
Maximum altitude 06:22:03 14° 221° (SW) 1,710 ? 17.8°
Drops below altitude 10° 06:24:27 10° 189° (S) 1,967 ? 18.1°
Sets 06:27:41 0° 164° (SSE) 2,862 ? 18.6°
